Regional Weather Roundup
Issued by NWS Sterling, VA

Home | Current Version | Previous Version | Text Only | Print | Product List | Glossary Off
Versions: 1 2 3 4 5 6 7 8 9 10 11 12 13 14 15 16 17 18 19 20 21 22 23 24 25 26 27 28 29 30 31 32 33 34 35 36 37 38 39 40 41 42 43 44 45 46 47 48 49 50

000
ASUS41 KLWX 191610
RWRLWX

REGIONAL WEATHER ROUNDUP
NATIONAL WEATHER SERVICE BALTIMORE MD/WASHINGTON DC
1200 PM EDT FRI SEP 19 2014

Note: "FAIR" indicates few or no clouds below 12,000 feet
with no significant weather and/or obstructions to visibility.
 TC=TEMPERATURE CELSIUS

 * =Non NWS site. Station does not report precipitation (e.g. rain,
    snow, etc.), thunder, or fog.

DCZ001-MDZ009-015-VAZ040>042-051-053>054-191700-
WASHINGTON METRO

CITY           SKY/WX    TMP DP  RH WIND       PRES   REMARKS
WASHINGTON NAT PTSUNNY   73  56  54 NE5       30.27S
DULLES         PTSUNNY   67  54  63 E6        30.28R
ANDREWS AFB    MOSUNNY   69  57  64 E7        30.27R
QUANTICO       MOSUNNY   71  57  61 N7        30.27S
COLLEGE PARK*  MOSUNNY   70  57  64 NE5       30.27S
LEESBURG*      CLOUDY    66  55  68 E6        30.29S
GAITHERSBURG*  MOSUNNY   66  55  68 SE7       30.31S

$$

MDZ006>007-011-014-191700-
BALTIMORE METRO

CITY           SKY/WX    TMP DP  RH WIND       PRES   REMARKS
BWI AIRPORT    PTSUNNY   67  55  65 E9        30.28R
MD SCIENCE CTR   N/A     69  54  58 MISG      30.29R
ANNAPOLIS      PTSUNNY   67  57  70 VRB3      30.28R
FORT MEADE*    MOSUNNY   68  55  64 NE7       30.30S

$$

MDZ012-015-019>023-191700-
MARYLAND EASTERN SHORE

CITY           SKY/WX    TMP DP  RH WIND       PRES   REMARKS
OCEAN CITY     CLOUDY    72  59  63 E7        30.24S
SALISBURY      MOSUNNY   75  57  53 NE6       30.24S
BAY BRIDGE AP*   N/A     70  55  60 NE6       30.27S
CAMBRIDGE*     MOSUNNY   73  59  60 E7        30.25S
EASTON*        MOSUNNY   73  61  64 E3        30.29S

$$

MDZ017>025-191700-
SOUTHERN MARYLAND

CITY           SKY/WX    TMP DP  RH WIND       PRES   REMARKS
PATUXENT RIVER PTSUNNY   71  58  63 VRB5      30.26R
ST INIGOES     MOSUNNY   74  56  53 E5        30.24S
LEONARDTOWN*   MOSUNNY   68  55  64 E6        30.27S

$$

MDZ003>005-191700-
NORTH CENTRAL MARYLAND

CITY           SKY/WX    TMP DP  RH WIND       PRES   REMARKS
FREDERICK*     MOSUNNY   72  55  56 N6        30.30F
HAGERSTOWN APT PTSUNNY   67  50  54 E8        30.28S
WESTMINSTER*   SUNNY     64  54  68 E5        30.29R

$$

MDZ501>502-191700-
WESTERN MARYLAND

CITY           SKY/WX    TMP DP  RH WIND       PRES   REMARKS
OAKLAND*       MOSUNNY   59  52  77 SE14G20   30.26S
CUMBERLAND*    MOSUNNY   70  50  49 SE3       30.31F

$$

VAZ025>031-191700-
SHENANDOAH VALLEY

CITY           SKY/WX    TMP DP  RH WIND       PRES   REMARKS
WINCHESTER*    MOSUNNY   66  50  55 E5        30.27F
STAUNTON*      CLOUDY    63  51  65 N5        30.28S

$$

WVZ021-048>050-054>055-191700-
EASTERN WEST VIRGINIA PANHANDLE

CITY           SKY/WX    TMP DP  RH WIND       PRES   REMARKS
MARTINSBURG    PTSUNNY   68  50  52 NE8       30.28S
PETERSBURG*    CLOUDY    63  47  57 SW3       30.28S

$$

VAZ036>039-050-191700-
CENTRAL FOOTHILLS

CITY           SKY/WX    TMP DP  RH WIND       PRES   REMARKS
CHARLOTTESVILL CLOUDY    63  54  72 NE6       30.27R
ORANGE*        CLOUDY    64  55  72 N5        30.28S

$$

VAZ055>057-191700-
NORTH AND CENTRAL PIEDMONT

CITY           SKY/WX    TMP DP  RH WIND       PRES   REMARKS
FREDERICKSBRG* MOSUNNY   71  60  69 NE6       30.25S
STAFFORD*      SUNNY     71  58  62 E8        30.30S

$$

NCZ024-NYZ072-PAZ021-071-VAZ022-071-191700-
OTHER REGIONAL OBSERVATIONS

CITY           SKY/WX    TMP DP  RH WIND       PRES   REMARKS
NEW YORK CITY  MOSUNNY   62  43  49 E8        30.37S
PHILADELPHIA   CLOUDY    65  52  62 NE12      30.32R
PITTSBURGH     MOSUNNY   65  50  58 E6        30.22F
ROANOKE        LGT RAIN  63  60  90 SE9       30.26S FOG
RICHMOND       PTSUNNY   74  57  55 NE5       30.25R
RALEIGH        MOSUNNY   77  56  48 E12G22    30.20R

$$

ANZ530>537-191700-
MARINE OBSERVATIONS

STATION/POSITION TIME  TEMP    WIND        PRES
                       AIR SEA DIR/SP/G
                 (UTC) (F)     (DEG/KT/KT) (MB)
THOMAS PT LIGHT  1600   65 74   50/  5/  6 1026.2R
BALT KEY BRIDGE  1600   64      60/  8/ 10 1025.3R
COVE POINT       1600   66     360/  5/  7 1024.5R
LEWISETTA        1600   70 74   70/  6/  9 1023.9S
SOLOMONS ISLAND  1600      76                N/A
PINEY POINT      1600          110/  5/  7   N/A

$$



USA.gov is the U.S. government's official web portal to all federal, state and local government web resources and services.